Date String (YYYY-MM-DD hh:mm:ss) UTC,Instrument flags,absolute air pressure of the measurement (hPa),sample flow rate (lpm),inlet stack bypass flow (lpm),air temperature of the measurement (°C),ambient temperature measured by the external sensor (°C),aerosol sample conditioner tube jacket temperature (°C),OPC LED temperature (°C),internal box temperature (°C),relative humidity of the measurement (%),span deviation,mass concentration of particles derived from Lorenz-Mie calculation of OPC scattering (μg/m³),mass concentration of particles derived from Lorenz-Mie calculation of OPC scattering (μg/m³),mass concentration of particles derived from Lorenz-Mie calculation of OPC scattering (μg/m³)
DateTimeUTC,F1_M11,P_M11,Q1_M11,Q2_M11,T1_M11,T2_M11,T3_M11,T4_M11,T5_M11,U1_M11,ZSPAN_M11,X0_M11,X2_M11,X1_M11
2024-03-07 04:00:00,SystemResetWarning,0822.0,5.00,000.00,022.1,021.1,000.0,030.6,023.9,12.7,0000.0,0009.18,0002.33,0001.27
2024-03-07 04:01:00,SystemResetWarning,0822.0,5.01,000.00,022.0,021.1,000.0,030.6,023.8,12.8,0000.0,0009.07,0002.40,0001.27
2024-03-07 04:02:00,SystemResetWarning,0822.0,5.01,000.00,022.0,021.1,000.0,030.6,023.8,12.9,0000.0,0008.93,0002.36,0001.26
2024-03-07 04:03:00,SystemResetWarning,0822.0,5.01,000.00,022.0,021.1,000.0,030.6,023.8,13.1,0000.0,0008.72,0002.37,0001.25
2024-03-07 04:04:00,SystemResetWarning,0821.9,5.01,000.00,022.0,021.1,000.0,030.6,023.8,13.2,0000.0,0008.44,0002.37,0001.25
2024-03-07 04:05:00,SystemResetWarning,0822.0,4.99,000.00,022.0,021.1,000.0,030.6,023.8,13.2,0000.0,0008.48,0002.34,0001.25
2024-03-07 04:06:00,SystemResetWarning,0821.9,4.98,000.00,022.0,021.1,000.0,030.6,023.8,13.3,0000.0,0008.72,0002.36,0001.24
2024-03-07 04:07:00,SystemResetWarning,0821.9,5.00,000.00,022.0,021.1,000.0,030.6,023.8,13.3,0000.0,0008.65,0002.45,0001.26
2024-03-07 04:08:00,SystemResetWarning,0822.0,5.01,000.00,022.0,021.1,000.0,030.6,023.8,13.3,0000.0,0007.63,0002.47,0001.27
2024-03-07 04:09:00,SystemResetWarning,0822.0,5.01,000.00,022.0,021.1,000.0,030.6,023.8,13.4,0000.0,0007.50,0002.53,0001.28
2024-03-07 04:10:00,SystemResetWarning,0822.1,4.99,000.00,022.0,021.0,000.0,030.6,023.8,13.4,0000.0,0007.40,0002.48,0001.30
2024-03-07 04:11:00,SystemResetWarning,0822.0,4.99,000.00,022.0,021.0,000.0,030.6,023.8,13.4,0000.0,0007.49,0002.56,0001.32
2024-03-07 04:12:00,SystemResetWarning,0822.1,5.01,000.00,022.0,021.0,000.0,030.6,023.8,13.5,0000.0,0007.55,0002.60,0001.35
2024-03-07 04:13:00,SystemResetWarning,0822.1,5.02,000.00,022.0,021.0,000.0,030.6,023.8,13.6,0000.0,0007.62,0002.72,0001.41
2024-03-07 04:14:00,SystemResetWarning,0822.1,4.99,000.00,021.9,021.0,000.0,030.5,023.8,13.7,0000.0,0007.72,0002.77,0001.44
2024-03-07 04:15:00,SystemResetWarning,0822.0,4.99,000.00,021.9,021.0,000.0,030.5,023.7,13.7,0000.0,0007.96,0002.96,0001.48
2024-03-07 04:16:00,SystemResetWarning,0822.1,5.00,000.00,021.9,020.9,000.0,030.5,023.7,14.0,0000.0,0008.57,0003.06,0001.52
2024-03-07 04:17:00,SystemResetWarning,0821.9,5.01,000.00,021.9,020.9,000.0,030.5,023.7,15.1,0000.0,0008.09,0003.11,0001.55
2024-03-07 04:18:00,SystemResetWarning,0821.6,5.00,000.00,021.9,020.8,000.0,030.5,023.5,15.2,0000.0,0008.03,0003.08,0001.55
2024-03-07 04:19:00,SystemResetWarning,0821.7,5.01,000.00,021.8,020.7,000.0,030.5,023.3,16.5,0000.0,0008.38,0003.09,0001.55
2024-03-07 04:20:00,SystemResetWarning,0822.0,5.00,000.00,021.7,020.6,000.0,030.4,023.2,16.4,0000.0,0008.50,0003.11,0001.55
2024-03-07 04:21:00,SystemResetWarning,0822.0,5.00,000.00,021.7,020.5,000.0,030.4,023.2,15.8,0000.0,0008.87,0003.13,0001.56
2024-03-07 04:22:00,SystemResetWarning,0822.0,5.00,000.00,021.6,020.3,000.0,030.4,023.2,15.9,0000.0,0009.61,0003.14,0001.57
2024-03-07 04:23:00,SystemResetWarning,0822.1,5.00,000.00,021.5,020.2,000.0,030.3,023.1,16.1,0000.0,0009.68,0003.18,0001.57
2024-03-07 04:24:00,SystemResetWarning,0822.1,5.00,000.00,021.5,020.1,000.0,030.3,023.0,15.6,0000.0,0009.68,0003.17,0001.56
2024-03-07 04:25:00,SystemResetWarning,0822.1,5.01,000.00,021.4,020.0,000.0,030.2,023.0,15.1,0000.0,0009.56,0003.16,0001.54
2024-03-07 04:26:00,SystemResetWarning,0822.1,5.01,000.00,021.4,019.9,000.0,030.2,022.9,14.4,0000.0,0009.86,0003.12,0001.52
2024-03-07 04:27:00,SystemResetWarning,0822.2,4.99,000.00,021.3,019.9,000.0,030.2,022.9,14.9,0000.0,0010.29,0003.11,0001.51
2024-03-07 04:28:00,SystemResetWarning,0822.2,4.99,000.00,021.3,019.9,000.0,030.1,022.9,15.4,0000.0,0011.55,0003.14,0001.52
2024-03-07 04:29:00,SystemResetWarning,0822.1,5.00,000.00,021.3,019.9,000.0,030.1,022.9,15.0,0000.0,0011.56,0003.14,0001.54
2024-03-07 04:30:00,SystemResetWarning,0822.2,5.00,000.00,021.3,019.9,000.0,030.1,022.9,15.2,0000.0,0011.13,0003.11,0001.54
2024-03-07 04:31:00,SystemResetWarning,0822.2,5.01,000.00,021.2,019.9,000.0,030.1,022.9,15.8,0000.0,0011.11,0003.11,0001.52
2024-03-07 04:32:00,SystemResetWarning,0822.3,5.00,000.00,021.2,020.0,000.0,030.0,022.9,16.0,0000.0,0011.35,0003.15,0001.51
2024-03-07 04:33:00,SystemResetWarning,0822.2,5.00,000.00,021.2,020.0,000.0,030.0,022.9,15.7,0000.0,0011.09,0003.16,0001.50
2024-03-07 04:34:00,SystemResetWarning,0822.2,5.00,000.00,021.2,020.1,000.0,030.0,023.0,15.9,0000.0,0011.60,0003.14,0001.49
2024-03-07 04:35:00,SystemResetWarning,0822.1,4.98,000.00,021.2,020.1,000.0,030.0,023.0,15.6,0000.0,0012.03,0003.13,0001.49
2024-03-07 04:36:00,SystemResetWarning,0822.1,5.00,000.00,021.2,020.1,000.0,029.9,023.0,15.9,0000.0,0012.49,0003.16,0001.49
2024-03-07 04:37:00,SystemResetWarning,0822.1,5.02,000.00,021.2,020.2,000.0,029.9,023.0,15.3,0000.0,0012.12,0003.14,0001.46
2024-03-07 04:38:00,SystemResetWarning,0822.2,4.99,000.00,021.2,020.2,000.0,029.9,023.0,15.0,0000.0,0011.27,0003.10,0001.44
2024-03-07 04:39:00,SystemResetWarning,0822.1,4.99,000.00,021.2,020.2,000.0,029.9,023.0,14.7,0000.0,0009.43,0002.98,0001.40
2024-03-07 04:40:00,SystemResetWarning,0822.1,5.00,000.00,021.2,020.2,000.0,029.9,023.0,14.5,0000.0,0009.14,0002.88,0001.35
2024-03-07 04:41:00,SystemResetWarning,0822.2,5.00,000.00,021.2,020.3,000.0,029.9,023.0,14.5,0000.0,0009.40,0002.81,0001.32
2024-03-07 04:42:00,SystemResetWarning,0822.2,5.01,000.00,021.2,020.3,000.0,029.8,023.0,14.7,0000.0,0009.59,0002.76,0001.29
2024-03-07 04:43:00,SystemResetWarning,0822.2,5.00,000.00,021.2,020.3,000.0,029.8,023.0,15.2,0000.0,0008.96,0002.61,0001.27
2024-03-07 04:44:00,SystemResetWarning,0822.2,5.00,000.00,021.2,020.3,000.0,029.8,023.0,15.1,0000.0,0008.47,0002.44,0001.23
2024-03-07 04:45:00,SystemResetWarning,0822.3,5.01,000.00,021.2,020.3,000.0,029.8,023.0,15.3,0000.0,0008.43,0002.31,0001.21
2024-03-07 04:46:00,SystemResetWarning,0822.2,4.99,000.00,021.2,020.3,000.0,029.8,023.0,15.2,0000.0,0008.10,0002.25,0001.19
2024-03-07 04:47:00,SystemResetWarning,0822.2,4.99,000.00,021.2,020.3,000.0,029.8,023.0,15.4,0000.0,0007.60,0002.14,0001.17
2024-03-07 04:48:00,SystemResetWarning,0822.3,5.00,000.00,021.2,020.2,000.0,029.8,023.0,16.4,0000.0,0007.53,0002.08,0001.15
2024-03-07 04:49:00,SystemResetWarning,0822.3,5.01,000.00,021.2,020.2,000.0,029.8,022.9,17.4,0000.0,0007.48,0002.11,0001.16
2024-03-07 04:50:00,SystemResetWarning,0822.3,5.00,000.00,021.1,020.1,000.0,029.8,022.9,17.5,0000.0,0007.62,0002.19,0001.20
2024-03-07 04:51:00,SystemResetWarning,0822.3,4.99,000.00,021.1,020.0,000.0,029.8,022.8,17.0,0000.0,0007.81,0002.28,0001.22
2024-03-07 04:52:00,SystemResetWarning,0822.3,4.99,000.00,021.1,019.9,000.0,029.8,022.8,17.1,0000.0,0007.99,0002.33,0001.24
2024-03-07 04:53:00,SystemResetWarning,0822.3,5.01,000.00,021.1,019.9,000.0,029.7,022.7,17.8,0000.0,0008.29,0002.36,0001.27
2024-03-07 04:54:00,SystemResetWarning,0822.3,5.00,000.00,021.0,019.8,000.0,029.7,022.7,17.3,0000.0,0008.52,0002.44,0001.31
2024-03-07 04:55:00,SystemResetWarning,0822.4,5.00,000.00,021.0,019.8,000.0,029.7,022.7,17.6,0000.0,0009.15,0002.56,0001.35
2024-03-07 04:56:00,SystemResetWarning,0822.4,5.00,000.00,021.0,019.7,000.0,029.7,022.7,18.0,0000.0,0009.02,0002.63,0001.38
2024-03-07 04:57:00,SystemResetWarning,0822.4,5.01,000.00,021.0,019.8,000.0,029.7,022.7,18.2,0000.0,0009.09,0002.62,0001.40
2024-03-07 04:58:00,SystemResetWarning,0822.3,4.99,000.00,020.9,019.8,000.0,029.7,022.7,18.1,0000.0,0009.11,0002.67,0001.42
2024-03-07 04:59:00,SystemResetWarning,0822.4,4.99,000.00,020.9,019.8,000.0,029.6,022.7,17.5,0000.0,0009.20,0002.74,0001.45
